Location: ??????
(42.0089°N, 44.3281°E)
Time: 18:57:40
(UTC+00:00)

NOSS 2-3 (E) - Pass Details

Date: 24 October 2021
Orbit: 540 x 1670 km, 63.4° (Epoch: 28 November)

Event Time Altitude Azimuth Distance (km) Brightness Sun altitude
Rises 15:34:22 0° 232° (SW) 2,687 7.7 -16.8°
Reaches altitude 10° 15:36:32 10° 239° (WSW) 1,819 6.9 -17.2°
Maximum altitude 15:40:20 44° 313° (NW) 822 4.5 -17.9°
Enters shadow 15:44:44 10° 25° (NNE) 2,102 6.0 -18.7°
